Zurück zum Katalog

BREEZE-M R/B

AktivHEO
NORAD 32301·ROCKET BODY·🇷🇺 Russia

Gestartet Nov 17, 2007 von Baikonur Cosmodrome

Loading…

Nächste Überflüge (nächste 24 Stunden)

TLE

AktuellSource: Space-Track

Epoche: Sep 9, 2026, 05:47 UTC

1 32301U 07057C   26252.24141872 -.00000159  00000-0  00000-0 0  9990
2 32301  17.9309  11.8922 5146563 319.8873 251.4136  1.90166908130626

Verfolge BREEZE-M R/B in Echtzeit mit AllMySat

Download on the App Store